Weather History for KART - January, 2013

Change the Weather History Date:

Tuesday, January 22, 2013

  Actual Average Record
Temperature  
Mean Temperature 7 °F 19 °F  
Max Temperature 13 °F 29 °F 55 °F (1959)
Min Temperature 1 °F 9 °F -37 °F (2014)
Degree Days  
Heating Degree Days 58 46  
Month to date heating degree days 804 997  
Since 1 July heating degree days 3242 3793  
Cooling Degree Days 0 0  
Month to date cooling degree days 0 0  
Year to date cooling degree days 0 0  
Moisture  
Dew Point -1 °F    
Average Humidity 69    
Maximum Humidity 95    
Minimum Humidity 42    
Precipitation  
Precipitation T in 0.09 in 0.87 in (1957)
Month to date precipitation 0.94 1.95  
Year to date precipitation 0.94 1.95  
Sea Level Pressure  
Sea Level Pressure 30.00 in    
Wind  
Wind Speed 7 mph (NNW)    
Max Wind Speed 18 mph    
Max Gust Speed 24 mph    
Visibility 10 miles    
Events      
T = Trace of Precipitation, MM = Missing Value Source: NWS Daily Summary

Daily Weather History Graph

Daily Weather History Graph

Search for Another Location

Airport or City:

Trip Planner

Search our weather history database for the weather conditions in past years. The results will help you decide how hot, cold, wet, or windy it might be!

Date:

Astronomy

Jan. 22, 2013 Rise Set
Actual Time 7:30 AM EST 5:01 PM EST
Civil Twilight 6:59 AM EST 5:32 PM EST
Nautical Twilight 6:24 AM EST 6:07 PM EST
Astronomical Twilight 5:49 AM EST 6:42 PM EST
Moon 1:20 PM EST (1/22) 3:51 AM EST (1/22)
Length of Visible Light 10h 33m
Length of Day
9h 30m
Waxing Gibbous, 82% of the Moon is Illuminated
Jan 22
Waxing Gibbous
Jan 26
Full
Feb 3
Last Quarter
Feb 10
New
Feb 17
First Quarter

Hourly Weather History & Observations

Time (EST) Temp. Windchill Dew Point Humidity Pressure Visibility Wind Dir Wind Speed Gust Speed Precip Events Conditions
12:56 AM 7.0 °F 0.1 °F 3.9 °F 87% 29.86 in 10.0 mi ESE 3.5 mph - 0.00 in   Mostly Cloudy
1:56 AM 3.9 °F -3.4 °F 1.9 °F 91% 29.87 in 10.0 mi WNW 3.5 mph - N/A   Overcast
2:56 AM 5.0 °F - 1.9 °F 87% 29.88 in 10.0 mi Calm Calm - N/A   Overcast
3:56 AM 1.9 °F - -0.9 °F 88% 29.88 in 10.0 mi Calm Calm - N/A   Scattered Clouds
4:41 AM 3.2 °F -4.2 °F -0.4 °F 85% 29.85 in 10.0 mi SE 3.5 mph - N/A   Overcast
4:56 AM 3.0 °F - -0.0 °F 87% 29.89 in 10.0 mi Calm Calm - N/A   Overcast
5:05 AM 3.2 °F - -0.4 °F 85% 29.86 in 10.0 mi Calm Calm - N/A   Overcast
5:56 AM 3.9 °F - 1.0 °F 88% 29.91 in 10.0 mi Calm Calm - N/A   Overcast
6:53 AM 6.8 °F -0.1 °F 3.2 °F 85% 29.90 in 10.0 mi ESE 3.5 mph - N/A   Overcast
6:56 AM 7.0 °F - 3.0 °F 84% 29.93 in 10.0 mi Calm Calm - N/A   Overcast
7:31 AM 8.6 °F 2.0 °F 3.2 °F 79% 29.90 in 10.0 mi ESE 3.5 mph - N/A   Overcast
7:56 AM 10.0 °F - 6.1 °F 84% 29.94 in 10.0 mi Calm Calm - N/A   Overcast
8:07 AM 10.4 °F 4.0 °F 5.0 °F 79% 29.91 in 10.0 mi NE 3.5 mph - N/A   Overcast
8:32 AM 10.4 °F -0.4 °F 5.0 °F 79% 29.92 in 10.0 mi North 6.9 mph - N/A   Overcast
8:53 AM 10.4 °F 0.8 °F 5.0 °F 79% 29.93 in 10.0 mi North 5.8 mph - N/A   Overcast
8:56 AM 10.9 °F 1.4 °F 5.0 °F 77% 29.96 in 10.0 mi NNW 5.8 mph - N/A   Overcast
9:44 AM 10.4 °F -1.5 °F 3.2 °F 73% 29.96 in 8.0 mi NNW 8.1 mph - N/A   Overcast
9:56 AM 10.9 °F -0.8 °F 3.9 °F 73% 30.00 in 9.0 mi North 8.1 mph - N/A   Overcast
10:11 AM 10.4 °F -1.5 °F 3.2 °F 73% 29.97 in 9.0 mi NNW 8.1 mph - N/A   Overcast
10:56 AM 10.9 °F 0.2 °F 1.9 °F 67% 30.03 in 10.0 mi NNW 6.9 mph - N/A   Mostly Cloudy
11:56 AM 12.0 °F 0.5 °F 1.9 °F 64% 30.03 in 10.0 mi WNW 8.1 mph - N/A   Overcast
12:56 PM 12.9 °F 0.7 °F -0.0 °F 56% 30.02 in 10.0 mi NW 9.2 mph - N/A   Overcast
1:56 PM 12.9 °F -1.6 °F -2.0 °F 51% 30.03 in 10.0 mi NW 12.7 mph 18.4 mph N/A   Overcast
2:56 PM 12.0 °F -1.3 °F -7.1 °F 42% 30.05 in 10.0 mi WNW 10.4 mph - N/A   Overcast
3:56 PM 12.0 °F -3.4 °F -6.0 °F 44% 30.08 in 10.0 mi NW 13.8 mph - N/A   Overcast
4:56 PM 10.9 °F -0.8 °F -7.1 °F 44% 30.10 in 10.0 mi NW 8.1 mph - N/A   Overcast
5:56 PM 10.0 °F -2.9 °F -8.0 °F 44% 30.12 in 10.0 mi NW 9.2 mph - N/A   Overcast
6:56 PM 10.0 °F -6.5 °F -8.0 °F 44% 30.14 in 10.0 mi NW 15.0 mph 21.9 mph N/A   Overcast
7:56 PM 8.1 °F -9.6 °F -8.0 °F 48% 30.15 in 10.0 mi NW 16.1 mph 21.9 mph N/A   Overcast
8:56 PM 6.1 °F -11.6 °F -9.9 °F 48% 30.17 in 10.0 mi NW 15.0 mph - N/A   Overcast
9:56 PM 5.0 °F -11.6 °F -11.9 °F 46% 30.19 in 10.0 mi NW 12.7 mph 21.9 mph N/A   Mostly Cloudy
10:56 PM 1.9 °F -9.2 °F -13.0 °F 50% 30.21 in 10.0 mi NW 5.8 mph - N/A   Clear
11:56 PM 1.0 °F -11.7 °F -14.1 °F 49% 30.21 in 10.0 mi NW 6.9 mph - N/A   Clear